{"data":{"norad_id":55416,"intl_designator":"2023-014AB","name":"STARLINK-5624","alt_names":[],"object_type":"PAYLOAD","status":"ACTIVE","operator":null,"country":"US","launch_date":"2023-01-31","launch_site_code":"AFWTR","launch_vehicle":null,"mission":null,"orbit_class":"UNKNOWN","rcs_meters":null,"size_class":null,"mass_kg":null,"dimensions":null,"purposes":["comms"],"wikipedia_slug":null,"has_3d_model":false,"image_url":null,"decayed_at":null,"tle_current":{"epoch":"2026-09-20T22:00:03.000096Z","epoch_age_seconds":60705,"freshness":"FRESH","line1":"1 55416U 23014AB  26263.91670139  .00078883  00000+0  55229-2 0  9994","line2":"2 55416  70.0009 312.1289 0003137 218.2689 291.1715 15.04795997  5765","mean_motion":15.04795997,"eccentricity":0.0003137,"inclination_deg":70.0009,"raan_deg":312.1289,"arg_perigee_deg":218.2689,"mean_anomaly_deg":291.1715,"bstar":0.0055229,"rev_number":576,"period_min":95.694034465191,"perigee_km":549.95793700638,"apogee_km":554.30598775338,"semimajor_km":6930.2689623799,"source":"CELESTRAK","updated_at":"2026-09-21T09:00:33.218367Z"}}}